Weather observations for the past three days for
Buckley Space Force Base
Imperial (Metric)
Date Time (mdt) Wind (mph) Vis. (mi.) Weather Sky Cond. Temperature (ºF) Relative Humidity Wind Chill (°F) Heat Index (°F) Pressure Precipitation (in)
Air Dwpt 6 hour altimeter (in) sea level (mb) 1 hr 3 hr 6 hr
Max. Min.
25 13:58 S 13 G 29 9.00 A Few Clouds FEW120 FEW220 94.8 34.3 12% 90 30.24 1013.4
25 12:58 SE 15 G 24 9.00 A Few Clouds FEW120 FEW220 92.8 36.7 14% 88 30.25 1014.2
25 11:58 S 12 G 22 10.00 A Few Clouds FEW090 FEW220 92.3 36.1 92.7 64.8 14% 88 30.27 1014.9
25 10:58 SE 16 G 23 9.00 Fair CLR 90.5 34.7 14% 86 30.28 1015.2
25 09:58 S 14 10.00 A Few Clouds FEW220 87.8 37.6 17% 84 30.3 1015.9
25 08:58 S 16 10.00 A Few Clouds FEW220 81 42.8 26% 80 30.31 1017.0
25 07:58 S 12 9.00 A Few Clouds FEW220 76.6 42.8 30% 78 30.31 1016.6
25 06:58 S 13 9.00 A Few Clouds FEW220 72 40.5 32% 30.31 1017.0
25 05:58 S 9 10.00 A Few Clouds FEW220 67.1 40.6 72.5 67.1 38% 30.31 1017.0
25 04:58 S 14 10.00 Fair CLR 68.4 41 37% 30.31 1016.6
25 03:58 S 13 10.00 Fair CLR 69.6 40.8 35% 30.3 1016.3
25 02:58 S 13 10.00 Fair CLR 71.2 39 31% 30.31 1016.2
25 01:58 S 15 10.00 Fair CLR 71.6 40.1 32% 30.31 1016.6
25 00:58 S 16 10.00 Fair CLR 72 42.1 34% 30.33 1017.3
24 23:58 S 12 10.00 Fair CLR 71.4 44.4 89.8 70.5 38% 30.33 1017.7
24 22:58 S 12 10.00 Fair CLR 72.5 44.8 37% 30.32 1017.4
24 21:58 SE 14 10.00 A Few Clouds FEW100 75.6 43.5 32% 77 30.32 1017.7
24 20:58 S 10 10.00 A Few Clouds FEW100 FEW140 77.7 36.9 23% 78 30.31 1017.4
24 19:58 SE 9 10.00 Mostly Cloudy FEW100 SCT140 BKN170 82.8 36.3 19% 80 30.29 1016.7
24 18:58 E 7 10.00 Mostly Cloudy FEW100 SCT140 BKN170 87.4 30.6 13% 84 30.29 1017.1
24 17:58 Calm 10.00 Mostly Cloudy FEW090 SCT140 BKN170 89.8 28.2 94.3 86.5 11% 86 30.29 1016.7
24 16:58 NE 6 9.00 Partly Cloudy FEW090 SCT180 93.2 25.9 9% 89 30.29 1016.3
24 15:58 E 6 8.00 Partly Cloudy FEW090 SCT180 93 23 8% 88 30.29 1016.3
24 14:58 E 9 9.00 A Few Clouds FEW090 FEW140 93.4 26.1 9% 89 30.3 1016.7
24 13:58 N 14 10.00 A Few Clouds FEW140 93 30.7 11% 88 30.31 1016.6
24 12:58 SE 5 9.00 A Few Clouds FEW140 90 32.5 13% 86 30.32 1017.4
24 11:58 W 5 10.00 Fair CLR 88.2 34.7 88.2 63.1 15% 84 30.32 1017.4
24 10:58 Calm 8.00 Fair CLR 84.6 43.7 24% 82 30.33 1018.1
24 09:58 SW 6 8.00 Fair CLR 79.7 43.7 28% 79 30.33 1018.1
24 08:58 SW 10 8.00 Fair CLR 74.7 45.9 36% 30.34 1018.4
24 07:58 SW 8 8.00 Fair CLR 69.6 47.3 45% 30.33 1018.5
24 06:58 SW 8 9.00 Fair CLR 64.4 48.4 56% 30.33 1018.5
24 05:58 Calm 8.00 Fair CLR 63.7 47.1 68.7 61.7 55% 30.31 1017.8
24 04:58 S 7 8.00 Fair CLR 64.2 48.2 56% 30.3 1017.4
24 03:58 S 10 8.00 Fair CLR 64.8 48.2 55% 30.29 1017.1
24 02:58 S 9 8.00 Fair CLR 65.1 49.5 57% 30.29 1017.1
24 01:58 SW 9 8.00 Fair CLR 65.3 49.3 56% 30.29 1016.7
24 00:58 S 10 8.00 Fair CLR 69.8 48.4 47% 30.28 1016.4
23 23:58 S 12 8.00 Fair CLR 68.7 46.6 87.1 68 45% 30.28 1017.1
23 22:58 S 9 8.00 Fair CLR 69.4 46.6 44% 30.27 1016.8
23 21:58 SE 12 8.00 Fair CLR 73 44.4 36% 30.27 1016.8
23 20:58 Calm 10.00 Fair CLR 78.6 39.9 25% 78 30.25 1016.1
23 19:58 N 5 7.00 Fair CLR 80.1 39.9 24% 79 30.24 1016.1
23 18:58 N 9 7.00 A Few Clouds FEW100 84.7 37.9 19% 82 30.23 1015.7
23 17:58 N 10 7.00 A Few Clouds FEW080 FEW220 86.7 36.7 88.5 80.6 17% 83 30.23 1015.7
23 16:58 N 10 7.00 A Few Clouds FEW075 FEW220 88 37.8 17% 84 30.23 1015.4
23 15:58 N 6 8.00 A Few Clouds FEW075 87.4 37.2 17% 84 30.23 1015.4
23 14:58 Vrbl 5 9.00 A Few Clouds FEW075 86.9 36.9 17% 83 30.24 1015.7
23 13:58 NE 8 10.00 A Few Clouds FEW075 86.5 35.1 16% 83 30.24 1015.7
23 12:58 Vrbl 5 10.00 A Few Clouds FEW075 83.5 36.9 19% 81 30.25 1016.4
23 11:58 Calm 7.00 Fair CLR 80.1 41 81.5 55.6 25% 79 30.26 1016.8
23 10:58 SW 7 7.00 Fair CLR 78.4 46 32% 78 30.27 1017.1
23 09:58 SW 5 7.00 Fair CLR 73 45.9 38% 30.27 1017.1
23 08:58 SW 8 7.00 Fair CLR 69.6 46 43% 30.27 1017.5
23 07:58 SW 7 7.00 Fair CLR 63.5 46.6 54% 30.27 1017.5
23 06:58 S 7 7.00 Fair CLR 58.6 47.7 67% 30.27 1017.5
23 05:58 SW 7 7.00 Fair CLR 57 47.3 63.7 56.7 70% 30.25 1017.2
23 04:58 S 6 10.00 Fair CLR 57.4 46.9 68% 30.25 1016.8
23 03:58 SW 7 10.00 Fair CLR 60.1 46.6 61% 30.25 1016.4
23 02:58 SW 7 10.00 Fair CLR 60.3 46.8 61% 30.24 1016.2
23 01:58 S 7 10.00 Fair CLR 60.3 46.8 61% 30.24 1016.1
23 00:58 S 7 10.00 Fair CLR 60.8 48.9 65% 30.25 1016.8
22 23:58 S 7 10.00 A Few Clouds FEW100 64 48.6 81 63.5 57% 30.25 1016.8
22 22:58 S 8 10.00 A Few Clouds FEW100 65.1 49.1 56% 30.25 1017.2
22 21:58 SW 8 10.00 Partly Cloudy SCT095 68 49.1 51% 30.25 1017.2
22 20:58 SE 5 10.00 Partly Cloudy SCT100 69.3 49.3 49% 30.23 1016.5
22 19:58 NE 9 7.00 A Few Clouds FEW100 74.1 47.5 39% 30.21 1015.8
22 18:58 N 10 7.00 A Few Clouds FEW080 79.3 42.4 27% 79 30.21 1015.8
22 17:58 NE 10 7.00 A Few Clouds FEW080 80.1 44.1 82.8 74.5 28% 79 30.2 1015.5
22 16:58 N 9 7.00 A Few Clouds FEW070 81.3 39.9 23% 80 30.2 1015.5
22 15:58 N 7 10.00 A Few Clouds FEW070 82 38.3 21% 80 30.21 1015.4
22 14:58 NW 7 7.00 Partly Cloudy SCT070 80.1 39.9 24% 79 30.23 1016.5
Date Time (mdt) Wind (mph) Vis. (mi.) Weather Sky Cond. Air Dwpt Max. Min. Relative Humidity Wind Chill (°F) Heat Index (°F) altimeter (in) sea level (mb) 1 hr 3 hr 6 hr
6 hour
Temperature (ºF) Pressure Precipitation (in)